When you browse on this site, cookies collect data to enhance your experience and personalize the content and advertising you see.
Visit our Privacy Policy to learn more. By continuing to use the site, you agree to this use of cookies and data.
  • In Deutschland
  • Länderverzeichnis
  • Für 7 Tage
  • Wassertemperatur
  • Wetterkarte
  • Widgets
  • user-avatar
    Anmelden

    Stündliche Wetter Ondjiwa

    Heute, 25 August, Sonntag

    Zeit Temperatur Niederschläge Wind Luftdruck Luftfeuchtigkeit
    00:00 +16°C° 0 mm 3 m/S 670 mmHg 17%
    01:00 +15°C° 0 mm 2 m/S 669 mmHg 19%
    02:00 +14°C° 0 mm 3 m/S 669 mmHg 21%
    03:00 +13°C° 0 mm 3 m/S 669 mmHg 22%
    04:00 +12°C° 0 mm 3 m/S 669 mmHg 24%
    05:00 +12°C° 0 mm 3 m/S 669 mmHg 24%
    06:00 +12°C° 0 mm 3 m/S 670 mmHg 24%
    07:00 +13°C° 0 mm 4 m/S 670 mmHg 23%
    08:00 +18°C° 0 mm 4 m/S 671 mmHg 19%
    09:00 +23°C° 0 mm 5 m/S 672 mmHg 14%
    10:00 +28°C° 0 mm 6 m/S 672 mmHg 9%
    11:00 +29°C° 0 mm 5 m/S 672 mmHg 8%
    12:00 +32°C° 0 mm 5 m/S 671 mmHg 7%
    13:00 +33°C° 0 mm 4 m/S 671 mmHg 6%
    14:00 +33°C° 0 mm 4 m/S 670 mmHg 6%
    15:00 +33°C° 0 mm 3 m/S 670 mmHg 6%
    16:00 +34°C° 0 mm 3 m/S 669 mmHg 5%
    17:00 +29°C° 0 mm 3 m/S 669 mmHg 7%
    18:00 +26°C° 0 mm 2 m/S 668 mmHg 8%
    19:00 +21°C° 0 mm 2 m/S 668 mmHg 10%
    20:00 +20°C° 0 mm 2 m/S 668 mmHg 11%
    21:00 +19°C° 0 mm 2 m/S 668 mmHg 11%
    22:00 +17°C° 0 mm 2 m/S 668 mmHg 12%
    23:00 +17°C° 0 mm 2 m/S 668 mmHg 13%

    Morgen, 26 August, Montag

    Zeit Temperatur Niederschläge Wind Luftdruck Luftfeuchtigkeit
    00:00 +16°C° 0 mm 2 m/S 668 mmHg 14%
    01:00 +15°C° 0 mm 2 m/S 668 mmHg 15%
    02:00 +14°C° 0 mm 2 m/S 668 mmHg 15%
    03:00 +14°C° 0 mm 2 m/S 668 mmHg 16%
    04:00 +13°C° 0 mm 2 m/S 668 mmHg 16%
    05:00 +13°C° 0 mm 2 m/S 668 mmHg 17%
    06:00 +13°C° 0 mm 1 m/S 669 mmHg 18%
    07:00 +13°C° 0 mm 1 m/S 670 mmHg 19%
    08:00 +18°C° 0 mm 1 m/S 670 mmHg 15%
    09:00 +21°C° 0 mm 2 m/S 671 mmHg 12%
    10:00 +27°C° 0 mm 3 m/S 672 mmHg 9%
    11:00 +29°C° 0 mm 2 m/S 672 mmHg 7%
    12:00 +32°C° 0 mm 2 m/S 671 mmHg 6%
    13:00 +34°C° 0 mm 1 m/S 671 mmHg 5%
    14:00 +34°C° 0 mm 1 m/S 670 mmHg 5%
    15:00 +33°C° 0 mm 1 m/S 670 mmHg 4%
    16:00 +33°C° 0 mm 1 m/S 669 mmHg 4%
    17:00 +29°C° 0 mm 2 m/S 669 mmHg 6%
    18:00 +26°C° 0 mm 3 m/S 668 mmHg 7%
    19:00 +21°C° 0 mm 3 m/S 668 mmHg 9%
    20:00 +21°C° 0 mm 3 m/S 668 mmHg 9%
    21:00 +20°C° 0 mm 3 m/S 668 mmHg 10%
    22:00 +19°C° 0 mm 3 m/S 669 mmHg 10%
    23:00 +18°C° 0 mm 2 m/S 668 mmHg 11%

    übermorgen, 27 August, Dienstag

    Zeit Temperatur Niederschläge Wind Luftdruck Luftfeuchtigkeit
    00:00 +18°C° 0 mm 2 m/S 668 mmHg 11%
    01:00 +18°C° 0 mm 2 m/S 668 mmHg 11%
    02:00 +16°C° 0 mm 1 m/S 668 mmHg 12%
    03:00 +15°C° 0 mm 1 m/S 668 mmHg 14%
    04:00 +13°C° 0 mm 1 m/S 667 mmHg 15%
    05:00 +14°C° 0 mm 1 m/S 668 mmHg 16%
    06:00 +14°C° 0 mm 1 m/S 669 mmHg 16%
    07:00 +14°C° 0 mm 1 m/S 669 mmHg 16%
    08:00 +20°C° 0 mm 1 m/S 670 mmHg 13%
    09:00 +25°C° 0 mm 1 m/S 671 mmHg 10%
    10:00 +30°C° 0 mm 1 m/S 672 mmHg 6%
    11:00 +32°C° 0 mm 1 m/S 672 mmHg 6%
    12:00 +34°C° 0 mm 1 m/S 671 mmHg 5%
    13:00 +36°C° 0 mm 1 m/S 671 mmHg 4%
    14:00 +36°C° 0 mm 1 m/S 670 mmHg 4%
    15:00 +36°C° 0 mm 2 m/S 669 mmHg 4%
    16:00 +35°C° 0 mm 2 m/S 669 mmHg 4%
    17:00 +31°C° 0 mm 2 m/S 668 mmHg 6%
    18:00 +27°C° 0 mm 3 m/S 668 mmHg 7%
    19:00 +24°C° 0 mm 3 m/S 667 mmHg 8%
    20:00 +22°C° 0 mm 3 m/S 668 mmHg 9%
    21:00 +21°C° 0 mm 2 m/S 668 mmHg 9%
    22:00 +21°C° 0 mm 2 m/S 668 mmHg 9%
    23:00 +20°C° 0 mm 2 m/S 668 mmHg 9%

    28 August, Mittwoch

    Zeit Temperatur Niederschläge Wind Luftdruck Luftfeuchtigkeit
    00:00 +19°C° 0 mm 2 m/S 668 mmHg 10%
    01:00 +18°C° 0 mm 2 m/S 668 mmHg 11%
    02:00 +17°C° 0 mm 3 m/S 667 mmHg 16%
    03:00 +16°C° 0 mm 3 m/S 667 mmHg 21%
    04:00 +13°C° 0 mm 3 m/S 667 mmHg 26%
    05:00 +14°C° 0 mm 2 m/S 667 mmHg 27%
    06:00 +14°C° 0 mm 1 m/S 668 mmHg 28%
    07:00 +15°C° 0 mm 1 m/S 668 mmHg 28%
    08:00 +20°C° 0 mm 1 m/S 669 mmHg 22%
    09:00 +25°C° 0 mm 1 m/S 670 mmHg 16%
    10:00 +29°C° 0 mm 2 m/S 671 mmHg 9%
    11:00 +32°C° 0 mm 1 m/S 671 mmHg 8%
    12:00 +35°C° 0 mm 1 m/S 670 mmHg 6%
    13:00 +37°C° 0 mm 1 m/S 670 mmHg 4%
    14:00 +36°C° 0 mm 1 m/S 669 mmHg 4%
    15:00 +36°C° 0 mm 1 m/S 668 mmHg 5%
    16:00 +36°C° 0 mm 2 m/S 668 mmHg 5%
    17:00 +32°C° 0 mm 2 m/S 667 mmHg 6%
    18:00 +28°C° 0 mm 2 m/S 667 mmHg 8%
    19:00 +25°C° 0 mm 2 m/S 666 mmHg 9%
    20:00 +24°C° 0 mm 2 m/S 666 mmHg 10%
    21:00 +23°C° 0 mm 2 m/S 667 mmHg 10%
    22:00 +21°C° 0 mm 2 m/S 667 mmHg 10%
    23:00 +20°C° 0 mm 2 m/S 667 mmHg 11%

    29 August, Donnerstag

    Zeit Temperatur Niederschläge Wind Luftdruck Luftfeuchtigkeit
    00:00 +19°C° 0 mm 2 m/S 666 mmHg 12%
    01:00 +17°C° 0 mm 2 m/S 666 mmHg 13%
    02:00 +16°C° 0 mm 2 m/S 666 mmHg 16%
    03:00 +15°C° 0 mm 2 m/S 665 mmHg 19%
    04:00 +14°C° 0 mm 2 m/S 665 mmHg 21%
    05:00 +15°C° 0 mm 1 m/S 666 mmHg 22%
    06:00 +15°C° 0 mm 1 m/S 667 mmHg 23%
    07:00 +15°C° 0 mm 1 m/S 668 mmHg 25%
    08:00 +21°C° 0 mm 1 m/S 668 mmHg 19%
    09:00 +25°C° 0 mm 1 m/S 669 mmHg 14%
    10:00 +29°C° 0 mm 2 m/S 670 mmHg 9%
    11:00 +31°C° 0 mm 2 m/S 670 mmHg 8%
    12:00 +34°C° 0 mm 1 m/S 669 mmHg 6%
    13:00 +36°C° 0 mm 1 m/S 668 mmHg 5%
    14:00 +36°C° 0 mm 1 m/S 668 mmHg 5%
    15:00 +35°C° 0 mm 1 m/S 667 mmHg 5%
    16:00 +35°C° 0 mm 1 m/S 667 mmHg 5%
    17:00 +32°C° 0 mm 1 m/S 666 mmHg 7%
    18:00 +29°C° 0 mm 2 m/S 666 mmHg 8%
    19:00 +25°C° 0 mm 2 m/S 665 mmHg 10%
    20:00 +24°C° 0 mm 2 m/S 666 mmHg 10%
    21:00 +24°C° 0 mm 3 m/S 666 mmHg 11%
    22:00 +22°C° 0 mm 3 m/S 667 mmHg 11%
    23:00 +20°C° 0 mm 3 m/S 666 mmHg 15%

    30 August, Freitag

    Zeit Temperatur Niederschläge Wind Luftdruck Luftfeuchtigkeit
    00:00 +19°C° 0 mm 3 m/S 666 mmHg 19%
    01:00 +17°C° 0 mm 4 m/S 665 mmHg 23%
    02:00 +16°C° 0 mm 3 m/S 665 mmHg 27%
    03:00 +15°C° 0 mm 2 m/S 665 mmHg 30%
    04:00 +14°C° 0 mm 2 m/S 665 mmHg 34%
    05:00 +15°C° 0 mm 1 m/S 665 mmHg 33%
    06:00 +15°C° 0 mm 1 m/S 666 mmHg 31%
    07:00 +16°C° 0 mm 1 m/S 667 mmHg 30%
    08:00 +21°C° 0 mm 1 m/S 667 mmHg 24%
    09:00 +25°C° 0 mm 1 m/S 668 mmHg 17%
    10:00 +29°C° 0 mm 2 m/S 669 mmHg 11%
    11:00 +31°C° 0 mm 2 m/S 668 mmHg 10%
    12:00 +34°C° 0 mm 2 m/S 668 mmHg 9%
    13:00 +36°C° 0 mm 2 m/S 667 mmHg 7%
    14:00 +36°C° 0 mm 3 m/S 667 mmHg 8%
    15:00 +36°C° 0 mm 3 m/S 666 mmHg 8%
    16:00 +36°C° 0 mm 3 m/S 666 mmHg 8%
    17:00 +32°C° 0 mm 2 m/S 666 mmHg 10%
    18:00 +29°C° 0 mm 2 m/S 665 mmHg 12%
    19:00 +26°C° 0 mm 1 m/S 665 mmHg 15%
    20:00 +24°C° 0 mm 2 m/S 666 mmHg 16%
    21:00 +22°C° 0 mm 3 m/S 666 mmHg 17%
    22:00 +20°C° 0 mm 4 m/S 666 mmHg 18%
    23:00 +19°C° 0 mm 4 m/S 666 mmHg 23%
    Mehr zeigen